Time,TemperatureF,DewpointF,PressureIn,WindDirection,WindDirectionDegrees,WindSpeedMPH,WindSpeedGustMPH,Humidity,HourlyPrecipIn,Conditions,Clouds,dailyrainin,SoftwareType,DateUTC
2013-05-20 00:12:00,65.0,65.0,30.04,East,100,0.0,1.0,99,0.00,,,0.00,weatherlink.com 1.10,2013-05-20 04:12:00,
2013-05-20 00:27:00,64.7,65.0,30.04,East,100,0.0,1.0,100,0.00,,,0.00,weatherlink.com 1.10,2013-05-20 04:27:00,
2013-05-20 00:42:00,64.7,65.0,30.04,East,100,0.0,0.0,100,0.00,,,0.00,weatherlink.com 1.10,2013-05-20 04:42:00,
2013-05-20 00:57:00,64.8,65.0,30.04,East,100,0.0,1.0,100,0.00,,,0.00,weatherlink.com 1.10,2013-05-20 04:57:00,
2013-05-20 01:12:00,64.8,65.0,30.04,East,100,0.0,1.0,100,0.00,,,0.00,weatherlink.com 1.10,2013-05-20 05:12:00,
2013-05-20 01:27:00,64.9,65.0,30.04,East,100,1.0,3.0,100,0.00,,,0.00,weatherlink.com 1.10,2013-05-20 05:27:00,
2013-05-20 01:42:00,64.9,65.0,30.04,ESE,103,0.0,4.0,100,0.00,,,0.00,weatherlink.com 1.10,2013-05-20 05:42:00,
2013-05-20 01:57:00,65.0,65.0,30.03,ESE,102,3.0,4.0,100,0.00,,,0.00,weatherlink.com 1.10,2013-05-20 05:57:00,
2013-05-20 02:12:00,65.0,65.0,30.03,ESE,102,0.0,1.0,100,0.00,,,0.00,weatherlink.com 1.10,2013-05-20 06:12:00,
2013-05-20 02:27:00,65.0,65.0,30.03,ESE,102,0.0,3.0,100,0.00,,,0.00,weatherlink.com 1.10,2013-05-20 06:27:00,
2013-05-20 02:42:00,65.1,65.0,30.03,ESE,102,1.0,3.0,100,0.00,,,0.00,weatherlink.com 1.10,2013-05-20 06:42:00,
2013-05-20 02:57:00,65.2,65.0,30.03,ESE,102,0.0,2.0,100,0.00,,,0.00,weatherlink.com 1.10,2013-05-20 06:57:00,
2013-05-20 03:12:00,65.3,65.0,30.03,ESE,102,0.0,2.0,100,0.00,,,0.00,weatherlink.com 1.10,2013-05-20 07:12:00,
2013-05-20 03:27:00,65.3,65.0,30.03,ESE,102,0.0,2.0,100,0.00,,,0.00,weatherlink.com 1.10,2013-05-20 07:27:00,
2013-05-20 03:42:00,65.2,65.0,30.03,ESE,102,0.0,2.0,100,0.00,,,0.00,weatherlink.com 1.10,2013-05-20 07:42:00,
2013-05-20 03:57:00,65.3,65.0,30.03,ESE,102,1.0,3.0,100,0.00,,,0.00,weatherlink.com 1.10,2013-05-20 07:57:00,
2013-05-20 04:12:00,65.2,65.0,30.03,ESE,102,0.0,3.0,100,0.00,,,0.00,weatherlink.com 1.10,2013-05-20 08:12:00,
2013-05-20 04:27:00,65.2,65.0,30.04,East,91,0.0,2.0,100,0.00,,,0.00,weatherlink.com 1.10,2013-05-20 08:27:00,
2013-05-20 04:42:00,65.1,65.0,30.03,SE,145,0.0,2.0,100,0.00,,,0.00,weatherlink.com 1.10,2013-05-20 08:42:00,
2013-05-20 04:57:00,65.1,65.0,30.03,SE,145,0.0,2.0,100,0.00,,,0.00,weatherlink.com 1.10,2013-05-20 08:57:00,
2013-05-20 05:12:00,65.0,65.0,30.03,SE,131,0.0,3.0,100,0.00,,,0.00,weatherlink.com 1.10,2013-05-20 09:12:00,
2013-05-20 05:27:00,65.0,65.0,30.03,SE,131,0.0,1.0,100,0.00,,,0.00,weatherlink.com 1.10,2013-05-20 09:27:00,
2013-05-20 05:42:00,64.9,65.0,30.03,SE,131,0.0,1.0,100,0.00,,,0.00,weatherlink.com 1.10,2013-05-20 09:42:00,
2013-05-20 05:57:00,64.8,65.0,30.03,SE,131,0.0,0.0,100,0.00,,,0.00,weatherlink.com 1.10,2013-05-20 09:57:00,
2013-05-20 06:12:00,64.3,64.0,30.03,SE,131,0.0,0.0,100,0.00,,,0.00,weatherlink.com 1.10,2013-05-20 10:12:00,
2013-05-20 06:27:00,63.9,64.0,30.03,SE,131,0.0,0.0,100,0.00,,,0.00,weatherlink.com 1.10,2013-05-20 10:27:00,
2013-05-20 06:42:00,63.7,64.0,30.04,SE,131,0.0,0.0,100,0.00,,,0.00,weatherlink.com 1.10,2013-05-20 10:42:00,
2013-05-20 06:57:00,63.7,64.0,30.03,SE,131,0.0,0.0,100,0.00,,,0.00,weatherlink.com 1.10,2013-05-20 10:57:00,
2013-05-20 07:12:00,64.0,64.0,30.05,SE,131,0.0,0.0,100,0.00,,,0.00,weatherlink.com 1.10,2013-05-20 11:12:00,
2013-05-20 07:27:00,64.2,64.0,30.06,SE,131,0.0,0.0,100,0.00,,,0.00,weatherlink.com 1.10,2013-05-20 11:27:00,
2013-05-20 07:42:00,64.4,64.0,30.06,SE,131,0.0,0.0,100,0.00,,,0.00,weatherlink.com 1.10,2013-05-20 11:42:00,
2013-05-20 07:57:00,64.6,65.0,30.07,SE,131,0.0,1.0,100,0.00,,,0.00,weatherlink.com 1.10,2013-05-20 11:57:00,
2013-05-20 08:12:00,64.7,65.0,30.07,SE,131,0.0,2.0,100,0.00,,,0.00,weatherlink.com 1.10,2013-05-20 12:12:00,
2013-05-20 08:27:00,64.9,65.0,30.07,SE,131,0.0,1.0,100,0.00,,,0.00,weatherlink.com 1.10,2013-05-20 12:27:00,
2013-05-20 08:42:00,65.2,65.0,30.08,SE,131,0.0,1.0,100,0.00,,,0.00,weatherlink.com 1.10,2013-05-20 12:42:00,
2013-05-20 08:57:00,65.5,66.0,30.08,SE,130,1.0,3.0,100,0.00,,,0.00,weatherlink.com 1.10,2013-05-20 12:57:00,
2013-05-20 09:12:00,65.8,66.0,30.08,East,99,2.0,4.0,100,0.00,,,0.00,weatherlink.com 1.10,2013-05-20 13:12:00,
2013-05-20 09:27:00,66.5,67.0,30.09,East,94,2.0,3.0,100,0.00,,,0.00,weatherlink.com 1.10,2013-05-20 13:27:00,
2013-05-20 09:42:00,67.0,67.0,30.09,ESE,104,0.0,4.0,98,0.00,,,0.00,weatherlink.com 1.10,2013-05-20 13:42:00,
2013-05-20 09:58:00,67.9,67.0,30.09,NE,39,2.0,3.0,96,0.00,,,0.00,weatherlink.com 1.10,2013-05-20 13:58:00,
2013-05-20 10:13:00,68.8,67.0,30.08,East,88,0.0,2.0,93,0.00,,,0.00,weatherlink.com 1.10,2013-05-20 14:13:00,
2013-05-20 10:28:00,69.2,67.0,30.08,East,91,0.0,2.0,93,0.00,,,0.00,weatherlink.com 1.10,2013-05-20 14:28:00,
2013-05-20 10:43:00,70.4,67.0,30.08,East,91,0.0,3.0,89,0.00,,,0.00,weatherlink.com 1.10,2013-05-20 14:43:00,
2013-05-20 10:58:00,70.7,68.0,30.09,NE,56,1.0,3.0,90,0.00,,,0.00,weatherlink.com 1.10,2013-05-20 14:58:00,
2013-05-20 11:13:00,70.4,67.0,30.11,NE,54,0.0,3.0,90,0.00,,,0.00,weatherlink.com 1.10,2013-05-20 15:13:00,
2013-05-20 11:28:00,69.7,68.0,30.12,NE,47,0.0,1.0,93,0.01,,,0.01,weatherlink.com 1.10,2013-05-20 15:28:00,
2013-05-20 11:43:00,68.9,68.0,30.11,NE,46,0.0,1.0,95,0.06,,,0.06,weatherlink.com 1.10,2013-05-20 15:43:00,
2013-05-20 11:58:00,67.7,67.0,30.09,NE,50,1.0,2.0,98,0.07,,,0.07,weatherlink.com 1.10,2013-05-20 15:58:00,
2013-05-20 12:13:00,67.0,67.0,30.08,NE,54,0.0,3.0,100,0.08,,,0.08,weatherlink.com 1.10,2013-05-20 16:13:00,
2013-05-20 12:28:00,67.6,68.0,30.08,NE,53,0.0,1.0,100,0.07,,,0.08,weatherlink.com 1.10,2013-05-20 16:28:00,
2013-05-20 12:43:00,68.7,68.0,30.08,NE,53,0.0,1.0,99,0.02,,,0.08,weatherlink.com 1.10,2013-05-20 16:43:00,
2013-05-20 12:58:00,70.2,69.0,30.07,NE,42,0.0,2.0,97,0.01,,,0.08,weatherlink.com 1.10,2013-05-20 16:58:00,
2013-05-20 13:13:00,71.9,70.0,30.06,ENE,62,1.0,2.0,93,0.00,,,0.08,weatherlink.com 1.10,2013-05-20 17:13:00,
2013-05-20 13:28:00,73.5,70.0,30.06,South,170,0.0,3.0,88,0.00,,,0.08,weatherlink.com 1.10,2013-05-20 17:28:00,
2013-05-20 13:43:00,74.5,69.0,30.05,SSW,195,2.0,4.0,83,0.00,,,0.08,weatherlink.com 1.10,2013-05-20 17:43:00,
2013-05-20 13:58:00,75.6,67.0,30.04,WSW,254,0.0,5.0,74,0.00,,,0.08,weatherlink.com 1.10,2013-05-20 17:58:00,
2013-05-20 14:13:00,77.3,66.0,30.04,WNW,293,0.0,4.0,69,0.00,,,0.08,weatherlink.com 1.10,2013-05-20 18:13:00,
2013-05-20 14:28:00,76.9,66.0,30.04,West,276,0.0,5.0,70,0.00,,,0.08,weatherlink.com 1.10,2013-05-20 18:28:00,
2013-05-20 14:43:00,77.5,67.0,30.04,NW,321,0.0,7.0,70,0.00,,,0.08,weatherlink.com 1.10,2013-05-20 18:43:00,
2013-05-20 14:58:00,78.5,68.0,30.03,NNW,327,0.0,4.0,69,0.00,,,0.08,weatherlink.com 1.10,2013-05-20 18:58:00,
2013-05-20 15:13:00,79.3,67.0,30.03,SSW,202,4.0,4.0,67,0.00,,,0.08,weatherlink.com 1.10,2013-05-20 19:13:00,
2013-05-20 15:28:00,79.7,68.0,30.02,WNW,282,2.0,3.0,67,0.00,,,0.08,weatherlink.com 1.10,2013-05-20 19:28:00,
2013-05-20 15:43:00,80.9,67.0,30.01,WNW,283,1.0,3.0,63,0.00,,,0.08,weatherlink.com 1.10,2013-05-20 19:43:00,
2013-05-20 15:58:00,81.3,67.0,30.01,WNW,285,1.0,4.0,63,0.00,,,0.08,weatherlink.com 1.10,2013-05-20 19:58:00,
2013-05-20 16:13:00,81.3,68.0,30.01,WNW,283,1.0,3.0,65,0.00,,,0.08,weatherlink.com 1.10,2013-05-20 20:13:00,
2013-05-20 16:28:00,80.8,68.0,30.00,WNW,283,0.0,2.0,66,0.00,,,0.08,weatherlink.com 1.10,2013-05-20 20:28:00,
2013-05-20 16:58:00,80.0,69.0,30.00,ESE,107,2.0,4.0,68,0.00,,,0.08,weatherlink.com 1.10,2013-05-20 20:58:00,
2013-05-20 17:13:00,80.1,69.0,30.00,East,93,0.0,5.0,69,0.00,,,0.08,weatherlink.com 1.10,2013-05-20 21:13:00,
2013-05-20 17:29:00,80.3,68.0,30.00,East,100,2.0,4.0,67,0.00,,,0.08,weatherlink.com 1.10,2013-05-20 21:29:00,
2013-05-20 17:44:00,79.6,68.0,30.00,ESE,106,1.0,4.0,67,0.00,,,0.08,weatherlink.com 1.10,2013-05-20 21:44:00,
2013-05-20 17:59:00,79.7,69.0,29.99,ENE,72,0.0,3.0,69,0.00,,,0.08,weatherlink.com 1.10,2013-05-20 21:59:00,
2013-05-20 18:14:00,79.5,68.0,29.98,East,96,1.0,4.0,68,0.00,,,0.08,weatherlink.com 1.10,2013-05-20 22:14:00,
2013-05-20 18:29:00,79.0,68.0,29.98,ESE,112,0.0,4.0,70,0.00,,,0.08,weatherlink.com 1.10,2013-05-20 22:29:00,
2013-05-20 18:44:00,78.7,68.0,29.98,East,97,2.0,4.0,70,0.00,,,0.08,weatherlink.com 1.10,2013-05-20 22:44:00,
2013-05-20 18:59:00,78.2,68.0,29.98,SE,143,0.0,3.0,71,0.00,,,0.08,weatherlink.com 1.10,2013-05-20 22:59:00,
2013-05-20 19:14:00,77.6,68.0,29.97,ESE,114,0.0,3.0,73,0.00,,,0.08,weatherlink.com 1.10,2013-05-20 23:14:00,
2013-05-20 19:29:00,77.2,68.0,29.98,ESE,114,0.0,1.0,74,0.00,,,0.08,weatherlink.com 1.10,2013-05-20 23:29:00,
2013-05-20 19:44:00,76.7,69.0,29.99,ESE,114,0.0,0.0,76,0.00,,,0.08,weatherlink.com 1.10,2013-05-20 23:44:00,
2013-05-20 19:59:00,75.9,69.0,29.99,ESE,114,0.0,0.0,78,0.00,,,0.08,weatherlink.com 1.10,2013-05-20 23:59:00,
2013-05-20 20:14:00,75.1,69.0,29.99,ESE,114,0.0,0.0,82,0.00,,,0.08,weatherlink.com 1.10,2013-05-21 00:14:00,
2013-05-20 20:29:00,74.4,69.0,30.00,ESE,114,0.0,0.0,84,0.00,,,0.08,weatherlink.com 1.10,2013-05-21 00:29:00,
2013-05-20 20:44:00,73.7,69.0,30.00,ESE,114,0.0,0.0,84,0.00,,,0.08,weatherlink.com 1.10,2013-05-21 00:44:00,
2013-05-20 20:59:00,73.2,69.0,30.00,ESE,114,0.0,1.0,86,0.00,,,0.08,weatherlink.com 1.10,2013-05-21 00:59:00,
2013-05-20 21:14:00,72.6,68.0,30.00,ESE,114,0.0,1.0,86,0.00,,,0.08,weatherlink.com 1.10,2013-05-21 01:14:00,
2013-05-20 21:29:00,71.9,68.0,30.00,ESE,114,0.0,1.0,87,0.00,,,0.08,weatherlink.com 1.10,2013-05-21 01:29:00,
2013-05-20 21:44:00,71.3,68.0,30.00,ESE,114,0.0,0.0,88,0.00,,,0.08,weatherlink.com 1.10,2013-05-21 01:44:00,
2013-05-20 21:59:00,70.6,67.0,30.01,ESE,114,0.0,0.0,89,0.00,,,0.08,weatherlink.com 1.10,2013-05-21 01:59:00,
2013-05-20 22:14:00,69.9,67.0,30.01,ESE,114,0.0,0.0,91,0.00,,,0.08,weatherlink.com 1.10,2013-05-21 02:14:00,
2013-05-20 22:29:00,69.2,67.0,30.01,ESE,114,0.0,0.0,92,0.00,,,0.08,weatherlink.com 1.10,2013-05-21 02:29:00,
2013-05-20 22:44:00,68.7,67.0,30.01,ESE,114,0.0,0.0,93,0.00,,,0.08,weatherlink.com 1.10,2013-05-21 02:44:00,
2013-05-20 22:59:00,68.2,67.0,30.01,ESE,114,0.0,0.0,94,0.00,,,0.08,weatherlink.com 1.10,2013-05-21 02:59:00,
2013-05-20 23:14:00,67.8,66.0,30.00,ESE,114,0.0,0.0,95,0.00,,,0.08,weatherlink.com 1.10,2013-05-21 03:14:00,
2013-05-20 23:29:00,67.4,66.0,30.00,ESE,114,0.0,0.0,96,0.00,,,0.08,weatherlink.com 1.10,2013-05-21 03:29:00,
2013-05-20 23:44:00,67.0,66.0,30.00,ESE,114,0.0,0.0,96,0.00,,,0.08,weatherlink.com 1.10,2013-05-21 03:44:00,
2013-05-20 23:59:00,66.6,66.0,29.99,ESE,114,0.0,0.0,97,0.00,,,0.08,weatherlink.com 1.10,2013-05-21 03:59:00,